Location: Franzen
(48.6167°N, 15.3833°E)
Time: 18:26:26
(UTC+00:00)

Altair - Pass Details

Date: 10 August 2021
Orbit: 1501 x 1682 km, 47.2° (Epoch: 20 September)

Event Time Altitude Azimuth Distance (km) Brightness Sun altitude
Rises 21:45:21 0° 222° (SW) 4,830 9.9 -23.8°
Reaches altitude 10° 21:48:38 10° 217° (SW) 3,822 9.3 -23.9°
Maximum altitude 21:57:45 48° 147° (SSE) 1,959 7.6 -24.4°
Drops below altitude 10° 22:06:33 10° 77° (ENE) 3,702 9.5 -24.8°
Sets 22:09:40 0° 72° (ENE) 4,669 10.1 -25.0°
